SCP
0 0 0 0 0 0 0 0 0 0 0 0 0 1 1 1 1 1 1 1 1 1 1 2 2 2 2 2 2 2 1 1 1 1 1 1 1 1 1 1 1 1 1
0 0 0 0 0 0 0 0 0 0 0 0 0 0 1 1 1 1 1 1 1 1 1 1 2 2 2 2 2 2 1 1 1 1 1 1 1 1 1 1 1 1 1
0 0 0 0 0 0 0 0 0 0 0 0 0 0 0 0 0 0 1 1 1 1 1 1 2 2 2 2 2 2 2 1 1 1 1 1 1 1 1 1 1 1 1
0 0 0 0 0 0 0 0 0 0 0 0 0 0 0 0 0 0 0 1 1 1 1 1 1 1 1 1 1 1 1 1 1 1 1 1 1 1 1 1 1 1 1
0 0 0 0 0 0 0 0 0 0 0 0 0 0 0 0 0 0 0 1 1 1 1 1 1 1 1 1 1 1 1 1 1 1 1 1 1 1 1 1 1 1 1
0 0 0 0 0 0 0 0 0 0 0 0 0 0 0 0 0 0 0 0 1 1 1 1 1 1 1 1 1 1 1 1 1 1 1 1 1 1 1 1 1 0 0
0 0 0 0 0 0 0 0 0 0 0 0 0 0 0 0 0 0 0 0 1 1 1 1 1 1 1 1 1 1 1 1 1 1 1 1 1 1 1 1 1 0 0
0 0 0 0 0 0 0 0 0 0 0 0 0 0 0 0 0 0 0 1 1 1 1 1 1 1 1 1 1 1 1 1 1 1 1 1 1 1 1 1 1 0 0
0 0 0 0 0 0 0 0 0 0 0 0 0 0 0 0 0 0 0 0 1 1 1 1 1 0 0 0 1 1 1 1 0 0 1 1 1 1 1 1 1 0 0
0 0 0 0 0 0 0 0 0 0 0 0 0 0 0 0 0 0 0 0 0 0 0 0 0 0 0 0 0 1 1 1 0 0 1 1 1 1 1 0 0 0 0
0 0 0 0 0 0 0 0 0 0 0 0 0 0 0 0 0 0 0 0 0 0 0 0 0 0 0 0 0 0 0 0 1 1 1 1 1 1 0 0 0 0 0
0 0 0 0 0 0 0 0 0 0 0 0 0 0 0 0 0 0 0 0 0 0 0 0 0 0 0 0 0 0 0 0 1 1 1 1 1 1 0 0 0 0 0
0 0 0 0 0 0 0 0 0 0 0 0 0 0 0 0 0 0 0 0 0 0 0 0 0 0 0 0 0 0 0 0 0 0 0 0 0 0 0 0 0 0 0
0 0 0 0 0 0 0 0 0 0 0 0 0 0 0 0 0 0 0 0 0 0 0 0 0 0 0 0 0 0 0 0 0 0 0 0 0 0 0 0 0 0 0
0 0 0 0 0 0 0 0 0 0 0 0 0 0 0 0 0 0 0 0 0 0 0 0 0 0 0 0 0 0 0 0 0 0 0 0 0 0 0 0 0 0 0
0 0 0 0 0 0 0 0 0 0 0 0 0 0 0 0 0 0 0 0 0 0 0 0 0 0 0 0 0 0 0 0 0 0 0 0 0 0 0 0 0 0 0
0 0 0 0 0 0 0 0 0 0 0 0 0 0 0 0 0 0 0 0 0 0 0 0 0 0 0 0 0 0 0 0 0 0 0 0 0 0 0 0 0 0 0
0 0 0 0 0 0 0 0 0 0 0 0 0 0 0 0 0 0 0 0 0 0 0 0 0 0 0 0 0 0 0 0 0 0 0 0 0 0 0 0 0 0 0
0 0 0 0 0 0 0 0 0 0 0 0 0 0 0 0 0 0 0 0 0 0 0 0 0 0 0 0 0 0 0 0 0 0 0 0 0 0 0 0 0 0 0
0 0 0 0 0 0 0 0 0 0 0 0 0 0 0 0 0 0 0 0 0 0 0 0 0 0 0 0 0 0 0 0 0 0 0 0 0 0 0 0 0 0 0
0 0 0 0 0 0 0 0 0 0 0 0 0 0 0 0 0 0 0 0 0 0 0 0 0 0 0 0 0 0 0 0 0 0 0 0 0 0 0 0 0 0 0
0 0 0 0 0 0 0 0 0 0 0 0 0 0 0 0 0 0 0 0 0 0 0 0 0 0 0 0 0 0 0 0 0 0 0 0 0 0 0 0 0 0 0
0 0 0 0 0 0 0 0 0 0 0 0 0 0 0 0 0 0 0 0 0 0 0 0 0 0 0 0 0 0 0 0 0 0 0 0 0 0 0 0 0 0 0
0 0 0 0 0 0 0 0 0 0 0 0 0 0 0 0 0 0 0 0 0 0 0 0 0 0 0 0 0 0 0 0 0 0 0 0 0 0 0 0 0 0 0
0 0 0 0 0 0 0 0 0 0 0 0 0 0 0 0 0 0 0 0 0 0 0 0 0 0 0 0 0 0 0 0 0 0 0 0 0 0 0 0 0 0 0
0 0 0 0 0 0 0 0 0 0 0 0 0 0 0 0 0 0 0 0 0 0 0 0 0 0 0 0 0 0 0 0 0 0 0 0 0 0 0 0 0 0 0
Wind_Speed
7 7 8 8 8 8 7 8 8 7 7 6 6 5 5 4 3 3 4 4 5 5 6 6 7 7 5 5 6 6 6 5 5 3 2 3 5 6 6 5 6 6 7
6 7 7 7 8 8 8 8 8 8 7 6 6 5 5 4 3 3 3 3 3 5 5 6 6 5 7 5 5 6 5 6 5 5 4 4 4 5 6 5 4 4 4
5 6 7 7 8 9 9 9 9 8 8 7 6 5 5 5 4 3 2 3 3 3 4 5 5 5 6 5 5 5 5 5 5 5 4 3 3 4 5 5 5 4 4
5 5 6 7 8 8 8 8 9 8 8 7 6 6 5 5 4 4 3 2 2 2 3 3 4 4 5 5 5 6 5 6 6 6 5 5 4 5 5 5 5 4 4
4 5 6 7 7 7 8 8 8 8 7 7 6 6 6 5 5 6 4 2 1 2 2 3 2 2 2 3 3 5 6 6 6 6 6 5 6 6 6 5 5 5 4
4 5 5 6 6 7 7 8 8 8 8 8 7 7 6 5 8 8 6 2 1 1 1 1 2 3 4 4 2 2 3 5 7 6 6 7 8 7 6 6 6 6 4
4 4 4 5 5 6 7 7 7 7 7 7 7 7 7 7 8 8 7 4 2 1 1 0 0 1 3 4 5 5 3 3 4 5 6 7 8 9 9 9 7 6 4
3 3 3 4 5 5 6 7 7 6 6 6 7 7 7 8 9 8 7 4 3 3 2 1 1 0 1 1 3 3 2 2 3 5 5 6 6 7 8 7 7 6 6
2 3 3 3 4 5 6 6 6 6 6 6 6 6 6 6 9 9 8 3 3 3 3 3 2 1 2 0 3 4 4 3 3 4 4 4 6 7 7 7 7 7 5
2 2 2 3 4 4 5 5 5 4 5 5 5 5 6 6 8 9 9 3 3 3 3 3 4 3 2 1 3 4 4 4 4 5 5 7 7 8 8 7 7 7 5
2 2 3 3 3 4 4 4 4 4 4 4 4 4 5 6 6 8 9 4 3 2 2 3 3 4 3 2 1 2 3 3 4 4 4 4 5 5 5 4 4 5 5
3 4 4 3 3 3 3 4 4 4 4 4 3 3 3 3 5 6 8 7 6 3 2 2 3 4 4 3 2 5 4 2 3 4 4 4 4 4 4 4 5 4 3
5 5 5 4 3 3 4 4 3 3 3 3 3 3 2 2 2 2 3 5 5 3 3 5 5 3 2 4 5 3 3 3 3 4 4 4 4 5 5 5 6 6 7
6 6 5 5 5 4 3 3 3 3 3 3 3 3 3 2 2 2 2 1 1 1 1 3 3 3 2 3 4 3 1 1 2 3 4 4 4 5 5 5 5 5 5
8 7 6 6 5 5 4 4 4 4 3 4 4 3 3 3 3 5 5 3 3 2 2 1 1 1 2 2 2 2 2 3 3 3 4 4 5 4 4 4 4 4 4
8 7 6 5 5 5 5 5 7 7 5 7 7 7 4 3 2 3 4 4 4 4 3 2 1 1 2 2 2 2 2 3 3 3 4 4 5 5 5 4 4 4 4
9 8 6 6 6 6 6 6 6 7 11 11 10 10 10 7 5 5 5 5 5 5 4 3 2 2 2 3 3 3 3 3 4 4 4 4 4 5 5 5 4 4 4
9 8 7 7 7 7 7 7 6 6 6 6 9 12 12 11 10 8 6 6 6 6 5 4 4 4 4 4 4 3 3 4 4 4 4 4 5 5 5 5 5 5 5
7 6 6 7 7 8 7 7 7 8 8 7 6 7 11 10 10 9 8 7 7 6 6 6 5 5 5 5 4 4 5 5 5 5 5 5 5 5 5 5 5 6 5
6 7 8 7 8 8 8 8 8 8 8 8 8 7 6 7 7 8 9 9 8 7 7 7 6 6 6 6 6 6 6 6 6 6 6 6 6 6 6 7 6 7 7
6 6 7 8 8 8 8 9 9 9 9 9 8 8 7 8 9 9 8 9 9 9 8 8 7 7 7 7 7 8 9 7 7 7 7 7 7 7 6 7 7 7 6
7 7 6 6 7 7 8 9 9 9 10 11 9 8 10 10 10 9 9 9 9 9 9 8 8 8 8 8 9 9 9 9 9 8 8 8 7 8 8 7 8 7 7
7 8 7 7 7 7 8 9 9 10 10 10 10 9 8 9 10 10 11 10 9 9 9 9 9 9 9 9 9 10 10 10 9 9 9 9 8 8 8 9 10 9 9
8 8 8 8 7 7 8 8 9 9 10 10 10 10 10 10 10 11 11 10 10 10 10 10 11 13 15 12 10 10 10 10 10 10 13 10 10 9 9 9 10 11 10
9 9 9 8 8 8 8 9 9 9 10 10 10 10 10 10 11 11 10 10 12 11 13 12 11 13 17 18 15 13 12 12 11 9 10 10 12 11 11 11 10 10 11
10 10 9 9 9 9 9 9 9 10 10 10 10 10 10 11 11 11 10 10 10 11 12 12 14 16 17 16 19 18 15 16 16 13 10 10 12 11 12 10 13 11 12
Wind_Direction
341 343 344 349 348 349 351 348 342 339 339 334 330 326 324 315 289 263 257 245 239 234 227 223 222 220 216 211 209 210 211 211 213 187 167 163 177 182 171 182 177 175 169
338 339 345 346 350 353 357 353 348 348 345 342 339 335 334 326 308 279 265 250 233 235 231 225 222 213 213 212 207 207 206 205 202 187 174 173 182 177 166 163 161 162 158
335 336 341 350 353 354 354 355 352 351 349 348 346 345 341 334 326 308 287 257 228 231 232 228 224 217 210 204 204 201 199 199 198 190 177 172 172 171 162 153 145 134 133
334 334 344 350 351 349 353 354 354 353 350 349 353 352 349 346 344 337 317 281 243 235 235 231 221 218 218 212 206 203 200 200 197 189 180 175 170 168 170 162 150 140 135
331 337 345 346 350 351 354 356 358 355 354 358 1 360 2 358 3 348 329 312 265 231 221 219 208 210 228 237 227 208 199 199 195 189 182 178 175 173 174 166 155 142 132
331 342 347 343 352 353 357 358 360 359 359 4 4 3 6 15 13 359 339 332 314 262 227 205 183 188 184 189 201 226 223 209 198 190 188 186 186 179 167 163 159 157 150
332 342 345 348 352 354 358 359 359 2 6 4 5 4 6 20 16 7 360 347 8 6 348 249 190 158 193 183 168 186 197 215 225 215 198 194 189 181 172 171 174 168 145
330 339 346 345 349 352 358 359 357 360 5 1 3 5 7 19 18 11 356 1 29 28 23 24 9 62 124 184 175 174 169 178 214 222 210 199 190 177 177 170 155 131 109
311 324 338 339 342 346 353 356 358 355 358 1 3 1 5 16 19 8 351 17 33 34 36 32 19 42 72 65 192 168 157 138 97 77 72 117 127 142 151 147 147 148 140
287 300 317 327 327 332 339 343 350 350 350 352 3 359 5 15 24 9 353 13 23 31 42 52 54 35 31 307 206 169 154 142 139 131 123 129 135 136 149 165 162 161 149
264 275 283 291 304 316 320 325 329 338 344 349 356 4 12 16 27 20 5 6 15 21 39 44 51 48 43 12 312 130 118 130 135 129 123 126 131 136 144 147 155 166 162
237 250 261 272 287 295 298 307 318 324 324 336 346 3 10 24 27 22 16 12 355 20 29 42 61 54 61 52 74 94 105 138 142 137 132 128 126 125 120 115 116 106 92
230 242 251 255 260 274 283 290 297 305 314 327 336 343 357 8 48 49 21 15 2 11 39 44 43 49 105 109 102 120 171 168 148 141 131 118 111 116 116 112 108 100 90
238 243 245 249 251 253 261 274 283 295 304 314 325 327 334 335 355 2 350 39 118 107 94 106 110 73 92 109 146 165 163 114 134 130 124 123 124 128 135 138 137 136 123
246 245 247 249 257 262 253 256 268 273 290 293 306 308 313 319 13 354 326 337 347 2 321 227 181 158 137 124 124 123 137 143 139 138 142 145 144 142 140 143 155 163 159
254 253 250 247 244 250 256 243 221 238 240 237 253 276 280 269 296 295 302 316 323 309 274 228 205 193 173 163 165 159 159 155 154 156 160 159 158 158 155 157 171 176 166
254 254 250 248 245 242 246 255 256 226 223 233 236 239 247 259 249 253 262 276 275 267 252 241 224 212 205 198 192 191 183 166 161 168 173 170 169 168 169 170 175 177 170
262 260 255 250 248 248 247 248 252 261 252 235 219 222 230 235 237 238 241 253 239 225 239 244 236 224 215 211 205 201 195 183 181 184 182 180 179 180 181 182 183 184 177
269 264 257 256 251 250 249 248 248 250 253 255 248 213 211 222 227 228 224 238 245 239 232 233 234 229 222 216 210 206 204 199 195 196 195 192 193 193 193 194 188 174 192
279 270 266 264 257 251 248 247 246 247 248 249 248 245 211 204 222 214 213 227 237 238 236 232 229 228 223 218 213 210 209 205 203 206 201 199 202 205 203 201 196 189 198
299 286 256 260 261 259 255 252 250 249 249 249 248 242 224 230 238 239 229 224 229 233 231 230 226 222 221 216 214 213 214 211 208 208 205 203 203 205 208 206 202 203 202
315 308 295 279 271 266 263 260 258 256 254 253 253 237 201 228 243 242 238 233 230 231 232 227 224 220 217 215 215 215 216 215 210 207 207 205 205 206 207 207 205 202 202
327 321 314 304 294 284 273 269 264 261 260 259 256 252 228 229 237 240 241 239 233 229 225 224 227 223 217 216 217 218 219 216 212 208 207 205 205 206 206 207 207 206 207
337 332 326 320 315 307 296 288 281 274 269 266 262 257 251 244 242 243 242 240 234 229 224 221 224 225 221 216 216 216 220 219 213 210 209 210 208 208 206 208 209 209 211
347 342 336 332 328 322 316 309 301 294 286 278 272 267 261 256 251 248 246 242 238 234 229 224 223 226 227 221 217 216 209 203 208 209 205 210 213 211 211 210 210 210 210
352 349 345 341 336 330 325 320 316 313 305 299 291 283 275 268 261 255 250 246 241 237 235 230 227 225 224 224 222 217 201 194 197 204 209 208 211 212 210 213 213 213 213